Retour au catalogue

FENGYUN 1C DEB

ActifPO
NORAD 30141·DEBRIS·🇨🇳 China

Lancé May 10, 1999 depuis Taiyuan Satellite Launch Center

Loading…

Prochains Passages (prochaines 24 heures)

TLE

FraisSource: Space-Track

Époque: Sep 14, 2026, 12:51 UTC

1 30141U 99025SW  26257.53607747  .00005581  00000-0  12640-2 0  9999
2 30141  99.0181 205.6043 0014855 293.3599  66.6034 14.56509944 22480

Suivez FENGYUN 1C DEB en temps réel avec AllMySat

Download on the App Store